TimeCDT,TemperatureF,Dew PointF,Humidity,Sea Level PressureIn,VisibilityMPH,Wind Direction,Wind SpeedMPH,Gust SpeedMPH,PrecipitationIn,Events,Conditions,WindDirDegrees,DateUTC
12:53 AM,57.0,54.0,89,29.91,10.0,Calm,Calm,-,N/A,,Clear,0,2013-03-31 05:53:00
1:53 AM,55.9,54.0,93,29.93,10.0,NNW,3.5,-,N/A,,Clear,330,2013-03-31 06:53:00
2:53 AM,54.0,53.1,97,29.92,5.0,Calm,Calm,-,N/A,,Clear,0,2013-03-31 07:53:00
3:19 AM,53.6,53.6,100,29.88,1.8,Calm,Calm,-,N/A,,Clear,0,2013-03-31 08:19:00
3:42 AM,55.4,53.6,94,29.88,3.0,NNW,4.6,-,N/A,,Clear,340,2013-03-31 08:42:00
3:53 AM,57.0,55.0,93,29.91,9.0,NNW,5.8,-,N/A,,Clear,340,2013-03-31 08:53:00
4:53 AM,59.0,55.0,87,29.95,10.0,Calm,Calm,-,N/A,,Clear,0,2013-03-31 09:53:00
5:53 AM,54.0,46.0,75,29.99,10.0,North,16.1,26.5,N/A,,Mostly Cloudy,360,2013-03-31 10:53:00
6:53 AM,53.1,46.9,80,30.00,10.0,North,11.5,23.0,0.00,,Overcast,360,2013-03-31 11:53:00
7:53 AM,53.1,46.0,77,30.01,10.0,North,11.5,17.3,0.00,,Clear,360,2013-03-31 12:53:00
8:53 AM,55.0,45.0,69,30.01,10.0,North,10.4,19.6,N/A,,Clear,10,2013-03-31 13:53:00
9:53 AM,61.0,44.1,54,30.02,10.0,North,9.2,16.1,N/A,,Clear,10,2013-03-31 14:53:00
10:53 AM,64.0,43.0,46,30.04,10.0,North,9.2,18.4,N/A,,Clear,360,2013-03-31 15:53:00
11:53 AM,64.9,42.1,43,30.03,10.0,NNE,12.7,-,N/A,,Clear,20,2013-03-31 16:53:00
12:53 PM,66.0,42.1,42,30.02,10.0,North,11.5,19.6,N/A,,Clear,360,2013-03-31 17:53:00
1:53 PM,68.0,42.1,39,30.01,10.0,North,10.4,-,N/A,,Clear,350,2013-03-31 18:53:00
2:53 PM,69.1,39.9,35,30.00,10.0,NNE,8.1,-,N/A,,Clear,20,2013-03-31 19:53:00
3:53 PM,70.0,43.0,38,29.99,10.0,North,12.7,16.1,N/A,,Clear,10,2013-03-31 20:53:00
4:53 PM,70.0,43.0,38,29.97,10.0,ENE,8.1,-,N/A,,Clear,60,2013-03-31 21:53:00
5:53 PM,70.0,39.9,33,29.96,10.0,North,8.1,-,N/A,,Partly Cloudy,360,2013-03-31 22:53:00
6:53 PM,69.1,41.0,36,29.96,10.0,NE,4.6,-,N/A,,Clear,40,2013-03-31 23:53:00
7:53 PM,62.1,42.1,48,29.96,10.0,NE,3.5,-,N/A,,Clear,40,2013-04-01 00:53:00
8:53 PM,57.9,43.0,58,29.98,10.0,Calm,Calm,-,N/A,,Clear,0,2013-04-01 01:53:00
9:53 PM,52.0,44.1,74,30.01,10.0,Calm,Calm,-,N/A,,Clear,0,2013-04-01 02:53:00
10:53 PM,50.0,44.1,80,30.02,10.0,Calm,Calm,-,N/A,,Clear,0,2013-04-01 03:53:00
11:53 PM,48.9,43.0,80,30.03,10.0,Calm,Calm,-,N/A,,Clear,0,2013-04-01 04:53:00